Temperature
13 13 13 13 13 14 14 14 14 14 14 14 14 14 14 14 14 14 14 14 14 14 14 14 14 14 14 14 14 14 14 14 14 14 14 15 14 14 14 14 14 14 14
13 13 13 13 13 13 14 14 14 14 14 14 14 14 14 14 14 14 14 14 14 14 14 14 14 14 14 14 14 14 14 14 14 14 14 14 14 14 14 14 14 14 14
13 13 13 13 13 13 13 14 14 13 14 14 14 14 14 14 14 14 14 14 14 14 14 14 14 14 14 14 14 14 14 14 14 14 14 13 14 14 14 14 14 14 14
12 12 13 13 13 13 13 13 13 13 13 13 13 13 13 13 13 13 13 13 13 13 14 14 14 14 14 14 14 14 14 14 14 13 13 13 13 13 13 13 13 13 13
12 12 12 12 13 13 13 13 13 13 13 13 13 13 13 13 13 13 13 13 13 13 13 13 14 14 14 14 14 14 13 13 13 13 13 13 13 13 13 13 13 13 13
12 12 12 12 12 12 13 13 13 13 13 13 13 13 13 13 13 13 13 13 13 13 13 13 13 13 13 13 13 13 13 13 13 12 12 12 12 13 13 13 13 13 13
11 12 12 12 12 12 12 12 13 13 13 13 13 13 13 13 13 13 13 13 13 13 13 13 13 13 13 13 13 13 13 13 12 12 12 12 12 12 12 12 13 13 13
11 11 11 12 12 12 12 12 12 12 12 12 12 12 12 12 13 13 13 13 13 12 12 13 13 13 13 13 13 13 13 12 12 12 12 12 12 12 12 12 12 12 12
11 11 11 11 11 12 12 12 12 12 12 12 12 12 12 12 12 12 12 12 12 12 12 12 12 12 12 12 12 12 12 12 12 11 11 11 11 12 12 12 12 12 12
10 10 11 11 11 11 11 11 11 12 12 12 12 12 12 12 12 12 12 12 12 12 12 12 12 12 12 12 12 12 12 12 11 11 11 11 11 11 11 11 11 11 12
10 10 10 10 11 11 11 11 11 11 11 11 11 11 11 11 11 11 11 11 11 11 12 11 11 11 11 11 11 11 11 11 11 11 11 11 11 11 11 11 11 11 11
9 10 10 10 10 10 10 10 11 11 11 11 11 11 11 11 11 11 11 11 11 11 11 11 11 11 11 11 11 11 11 10 10 10 10 10 10 10 10 10 10 11 11
9 9 9 10 10 10 10 10 10 10 10 10 10 11 10 10 10 10 10 10 10 10 10 10 10 10 10 10 10 10 10 10 10 10 10 10 10 10 10 10 10 10 10
9 9 9 9 9 9 9 10 10 10 10 10 10 10 10 10 10 10 10 10 10 10 10 10 10 10 10 10 10 10 10 10 9 9 10 10 10 10 9 9 9 9 9
8 8 8 9 9 9 9 9 9 9 9 9 9 9 9 9 9 9 9 9 9 9 9 9 9 9 9 9 9 9 9 9 9 9 9 9 9 9 9 9 9 9 9
8 8 8 8 8 8 8 8 8 9 9 9 9 9 9 9 9 9 9 9 9 9 9 9 9 9 9 9 9 9 9 9 9 9 9 9 9 9 9 9 8 8 8
7 7 7 8 8 8 8 8 8 8 8 8 8 8 8 8 8 8 8 8 8 8 8 8 8 8 8 8 8 8 8 8 8 8 8 8 8 8 8 8 8 8 8
7 7 7 7 7 7 7 7 7 7 8 8 7 7 7 7 7 7 7 7 8 8 8 8 7 7 8 8 7 7 7 8 8 8 8 8 8 8 8 8 8 8 8
6 6 7 7 7 7 7 7 7 7 7 7 7 7 7 7 7 7 7 7 7 7 7 7 7 7 7 7 7 7 7 7 7 7 7 7 7 7 7 7 7 7 7
6 6 6 6 6 6 6 6 6 6 6 6 6 6 6 6 6 6 6 6 6 6 6 6 6 6 6 6 7 7 7 6 6 6 6 6 6 6 6 7 7 7 7
5 5 5 5 5 5 6 5 6 5 5 5 5 6 5 6 6 6 6 6 6 6 6 6 6 6 6 6 6 6 6 6 6 6 6 6 6 6 6 6 6 6 6
4 5 5 5 5 5 5 5 5 5 5 5 5 5 5 5 5 5 5 5 5 5 5 5 5 5 5 5 5 4 5 5 5 5 5 5 5 5 5 5 5 5 5
4 4 4 4 4 4 4 4 4 4 4 4 4 4 4 4 4 4 4 4 4 4 4 4 4 4 4 4 4 4 4 4 4 4 5 5 5 5 5 5 5 5 5
3 3 3 3 3 3 3 3 3 4 4 3 3 3 3 4 4 4 4 4 4 4 3 4 4 4 4 3 3 3 3 3 3 3 4 4 4 4 4 4 4 4 4
2 2 3 3 3 3 3 3 3 3 3 3 3 3 3 3 3 3 3 3 3 3 3 3 3 3 3 3 3 3 3 3 2 2 3 3 3 4 4 4 4 4 4
1 2 2 2 2 2 2 2 2 2 2 2 2 2 2 2 2 2 2 2 2 2 2 2 2 2 2 2 2 2 2 2 2 2 2 2 2 3 3 3 3 3 3
Wind_Speed
2 2 3 4 7 8 10 10 11 11 12 12 12 12 12 12 13 13 13 13 14 14 15 15 16 16 16 17 17 17 16 17 16 16 16 16 16 16 15 14 14 15 17
1 1 3 6 8 9 10 10 11 11 11 11 12 12 12 12 13 13 13 13 13 14 14 15 15 16 16 16 16 16 15 15 15 15 14 15 15 15 15 15 15 14 16
3 2 4 7 9 10 10 11 11 11 11 11 11 12 12 13 13 13 13 13 13 14 14 15 15 15 15 15 15 14 14 14 13 12 10 12 13 14 15 15 15 15 15
3 3 5 8 9 9 10 11 10 10 11 11 11 11 12 12 12 13 13 13 13 13 14 14 14 14 14 14 14 13 13 12 11 8 10 11 12 13 14 14 14 14 14
4 5 6 8 9 9 10 10 10 10 10 11 11 11 11 11 12 12 12 13 13 13 13 13 13 13 13 13 13 13 12 11 9 9 11 10 11 12 12 13 13 13 13
5 5 6 7 8 9 9 10 10 10 10 10 10 11 11 11 11 11 12 12 12 12 12 12 12 12 12 12 12 12 11 9 7 9 10 10 11 11 11 11 11 12 12
5 5 6 7 8 8 9 9 9 10 10 10 10 10 11 10 10 11 11 11 11 11 11 11 11 11 11 11 11 11 10 8 8 8 8 9 10 10 10 10 10 11 11
5 5 6 7 7 8 9 9 9 9 10 10 9 9 10 11 11 11 10 10 10 10 10 10 10 10 10 10 10 10 9 7 7 8 8 9 10 9 10 10 10 10 10
6 5 6 6 6 7 9 9 10 10 10 11 10 9 9 10 10 10 10 10 10 10 10 10 10 9 9 9 9 9 8 6 6 7 7 8 8 8 8 9 9 9 9
5 5 5 5 6 6 7 10 10 10 10 11 11 11 9 9 9 9 9 10 10 10 9 9 9 9 9 9 9 8 7 4 6 6 6 7 7 7 7 8 8 8 8
4 4 4 5 5 5 6 7 8 9 9 9 9 9 8 7 7 7 9 9 9 9 9 9 9 9 8 8 8 7 5 4 5 5 5 7 6 6 6 6 7 7 7
2 3 3 4 4 4 4 5 5 5 6 6 6 6 6 5 5 6 8 9 9 8 8 8 8 7 5 5 5 5 4 4 4 4 6 6 6 6 6 6 6 6 6
2 2 3 3 4 4 4 4 4 4 4 5 5 5 5 5 5 5 5 6 6 6 5 5 5 4 4 4 3 3 3 3 3 4 5 6 6 5 5 5 5 5 5
2 2 2 3 3 4 3 3 3 4 4 4 4 5 5 4 4 4 3 3 3 3 3 2 3 3 3 4 3 3 3 3 2 2 4 6 5 5 5 5 5 4 5
2 2 2 2 3 3 3 3 4 4 4 4 4 4 4 4 3 3 3 3 2 2 2 2 2 2 2 3 2 2 2 2 2 2 2 5 5 5 5 5 5 4 4
1 1 2 2 3 3 3 3 3 3 3 4 4 4 4 3 3 2 2 2 2 2 1 1 1 1 1 1 1 1 1 2 2 2 2 3 4 5 5 5 5 5 3
1 1 2 1 3 3 3 3 3 3 3 3 4 4 3 3 2 2 2 2 2 1 1 1 1 1 1 1 0 0 1 1 1 1 1 2 2 3 4 5 5 5 5
2 2 2 2 3 3 3 3 3 3 3 3 3 3 3 3 2 2 1 2 1 1 1 1 0 1 1 1 1 1 0 0 0 0 1 2 2 1 2 4 5 5 5
2 2 2 2 2 3 3 3 3 4 3 3 3 3 2 2 2 1 1 1 0 1 1 1 1 1 1 2 2 2 1 1 1 1 1 1 1 2 2 2 3 4 5
2 3 3 3 2 3 3 3 3 3 3 4 3 3 3 3 2 1 1 1 0 0 0 0 1 1 1 2 2 2 2 2 1 1 2 2 1 1 2 2 2 3 3
3 3 3 3 2 2 2 2 1 1 1 2 3 4 4 4 4 2 1 1 0 1 1 1 1 1 1 1 2 2 2 3 2 2 2 2 2 2 2 2 3 3 3
4 4 3 3 2 2 1 1 1 1 1 2 3 4 4 4 3 3 2 1 1 1 1 1 1 1 1 1 2 2 2 3 2 3 2 3 2 3 3 3 3 4 4
4 4 3 3 2 2 2 2 2 1 1 1 2 2 4 4 3 2 2 1 1 1 1 2 2 2 2 1 2 2 2 3 2 3 3 3 3 3 3 4 4 4 5
3 3 3 3 2 2 2 2 2 2 1 1 1 1 2 3 4 4 3 2 1 1 2 2 2 2 3 2 2 2 3 2 3 3 3 4 4 4 4 4 4 5 5
2 2 2 3 2 2 2 3 3 2 1 1 1 0 1 2 3 3 3 3 2 2 2 2 2 2 2 3 2 2 3 3 4 4 4 4 4 4 4 4 4 5 5
2 2 1 2 2 2 2 3 3 3 2 2 1 1 1 1 1 2 3 2 2 2 2 2 3 3 3 3 3 3 3 3 3 4 5 6 5 4 4 4 4 5 5
Wind_Direction
116 13 3 74 85 88 89 93 94 94 91 89 90 90 90 88 87 85 85 85 83 84 85 83 81 78 77 78 78 75 74 74 75 74 73 71 70 71 70 67 70 75 73
124 60 50 84 90 91 91 91 93 95 95 91 91 90 89 88 85 84 84 86 85 84 84 84 81 80 78 78 79 78 77 77 76 76 78 77 72 68 66 61 63 73 74
100 88 84 84 90 92 92 92 92 96 97 95 93 91 89 87 86 84 83 84 84 83 83 82 82 81 82 81 81 80 78 77 76 78 84 81 77 71 67 67 71 74 74
97 89 90 86 92 94 94 93 92 98 100 97 95 93 90 88 87 85 83 83 84 83 83 82 82 82 82 82 83 82 78 75 71 73 78 78 79 74 70 70 72 72 73
93 81 86 88 93 96 95 93 92 94 99 99 96 93 91 89 88 86 84 84 84 83 83 83 82 83 83 81 81 81 78 73 67 73 76 76 77 74 71 70 71 72 72
91 79 85 88 89 93 93 92 91 92 93 96 96 93 91 90 90 89 87 87 87 85 84 85 84 83 84 82 79 80 78 74 77 76 75 74 74 71 72 72 71 72 75
95 77 83 89 88 89 87 90 91 92 92 92 95 94 93 93 92 92 91 90 89 88 87 87 85 84 84 82 80 80 77 67 74 77 76 75 72 69 71 73 72 72 73
89 79 79 80 87 87 87 86 87 92 92 90 93 93 94 94 92 90 92 92 91 90 87 87 87 85 83 81 80 79 75 68 76 77 74 72 68 69 71 69 70 71 70
84 79 74 79 86 91 88 86 85 84 88 88 87 90 92 94 94 92 89 90 91 90 88 85 85 84 83 80 77 76 73 63 75 74 71 70 64 66 69 69 68 68 69
77 68 67 78 80 89 94 87 83 82 82 84 82 82 87 93 94 93 93 88 87 88 88 85 84 87 85 81 75 70 72 76 74 71 70 67 65 66 69 69 67 66 68
66 58 57 66 73 79 91 91 89 85 82 84 83 83 86 94 98 98 88 87 87 87 88 87 88 88 89 85 75 71 70 68 68 62 63 60 63 64 68 71 68 69 68
73 51 55 61 62 71 87 95 94 91 89 86 89 87 82 84 87 94 91 86 85 86 87 86 88 91 92 94 84 76 71 64 61 57 55 50 58 59 64 69 70 70 68
121 65 49 59 64 68 75 85 92 94 89 82 79 77 81 81 81 84 92 89 87 86 84 89 94 91 90 91 94 86 78 73 61 54 46 38 45 51 58 69 68 67 66
122 86 53 70 73 66 74 82 87 87 82 78 81 78 78 77 75 76 76 75 74 77 85 90 90 90 92 96 95 90 81 78 67 59 47 33 35 43 51 64 64 67 67
127 93 61 70 86 78 75 71 69 74 80 82 78 75 76 81 74 72 75 71 66 62 79 87 93 97 93 88 87 86 78 67 63 52 55 39 35 41 46 53 51 61 70
132 124 96 67 81 83 85 81 71 71 82 86 77 65 74 77 78 74 67 64 58 45 46 78 107 120 109 103 91 80 76 67 56 50 38 43 39 39 37 37 36 34 30
142 111 99 60 84 89 89 85 75 73 78 75 74 68 62 70 78 78 68 58 49 33 33 69 120 139 124 127 126 67 52 53 61 50 23 2 13 47 40 31 27 25 19
151 135 107 67 81 84 83 83 78 74 73 64 68 72 63 60 70 82 68 48 30 32 48 40 283 219 211 227 240 247 248 247 253 333 353 344 345 357 28 25 16 15 9
165 145 116 80 84 92 85 81 78 69 61 57 57 52 49 55 53 72 68 52 45 65 45 5 319 275 248 251 255 255 249 235 240 241 261 310 351 352 351 9 12 6 1
163 142 121 97 90 95 98 91 83 73 55 48 46 39 34 32 31 41 66 43 133 97 59 325 288 301 271 269 264 259 252 244 238 235 257 274 295 321 328 332 328 325 344
161 148 133 122 116 109 119 116 92 58 47 44 35 37 32 24 20 18 31 28 344 228 230 245 250 254 286 285 266 264 243 233 238 240 251 257 262 283 291 303 306 300 305
165 161 151 145 143 130 125 130 130 112 61 44 34 30 19 19 19 8 12 360 315 277 249 232 227 238 273 268 257 266 254 227 230 238 244 244 252 262 272 281 289 293 293
170 176 165 161 163 142 117 104 105 94 61 37 17 16 8 9 10 4 360 343 325 282 264 268 247 234 240 243 251 248 252 247 271 232 241 240 244 253 266 270 273 278 282
178 176 168 162 166 154 139 143 149 166 179 219 303 329 355 11 15 5 1 344 319 296 270 264 261 258 247 242 250 257 270 277 260 257 240 244 250 252 260 270 268 269 271
179 170 174 171 170 167 167 173 180 186 193 182 184 276 342 6 9 2 358 355 340 310 292 281 263 250 249 253 250 260 257 261 256 256 264 264 259 254 260 262 266 266 264
175 167 178 185 185 183 187 189 192 199 199 191 203 240 294 322 355 356 350 341 334 324 307 291 270 253 247 246 246 245 253 252 253 254 261 268 267 265 260 259 260 263 260
Height
1542 1543 1544 1545 1545 1546 1547 1547 1547 1547 1548 1548 1548 1548 1548 1548 1548 1548 1548 1547 1547 1547 1547 1546 1546 1546 1546 1545 1545 1545 1545 1544 1544 1544 1543 1543 1543 1543 1543 1543 1543 1542 1542
1542 1543 1544 1545 1546 1546 1547 1547 1548 1548 1548 1549 1549 1549 1549 1549 1549 1549 1549 1549 1548 1548 1548 1548 1547 1547 1547 1547 1547 1546 1546 1546 1546 1546 1546 1546 1546 1545 1545 1545 1545 1545 1544
1541 1543 1544 1545 1546 1547 1547 1548 1548 1549 1549 1549 1550 1550 1550 1550 1550 1550 1550 1550 1549 1549 1549 1549 1549 1548 1548 1548 1548 1548 1548 1548 1548 1547 1548 1548 1548 1547 1547 1547 1546 1546 1546
1542 1543 1544 1545 1546 1547 1547 1548 1548 1549 1549 1550 1550 1550 1551 1551 1551 1551 1551 1551 1550 1550 1550 1550 1549 1549 1549 1549 1549 1549 1549 1549 1549 1549 1550 1550 1549 1549 1549 1548 1548 1548 1548
1542 1543 1544 1545 1546 1547 1548 1548 1549 1549 1549 1550 1550 1551 1551 1551 1551 1551 1551 1551 1551 1551 1551 1551 1550 1550 1550 1551 1550 1550 1550 1550 1550 1551 1551 1551 1550 1550 1550 1550 1550 1549 1549
1542 1543 1544 1545 1546 1547 1547 1548 1548 1549 1549 1550 1550 1550 1551 1551 1551 1552 1552 1552 1552 1552 1551 1551 1551 1551 1551 1551 1551 1551 1551 1551 1551 1552 1552 1552 1551 1551 1551 1551 1551 1551 1551
1542 1543 1544 1545 1546 1547 1547 1548 1548 1549 1549 1550 1550 1550 1550 1551 1551 1552 1552 1552 1552 1552 1552 1552 1552 1552 1552 1552 1551 1551 1552 1552 1552 1552 1552 1552 1552 1552 1552 1552 1552 1552 1552
1541 1543 1544 1544 1546 1546 1547 1547 1548 1548 1549 1549 1549 1550 1550 1550 1551 1551 1552 1552 1552 1552 1552 1552 1552 1552 1552 1552 1552 1552 1552 1552 1553 1553 1553 1553 1553 1553 1553 1553 1553 1552 1552
1541 1542 1543 1544 1545 1546 1547 1547 1547 1548 1548 1549 1549 1549 1550 1550 1550 1551 1551 1551 1552 1552 1552 1552 1552 1552 1552 1552 1552 1553 1553 1553 1554 1553 1553 1553 1553 1553 1553 1553 1553 1553 1553
1540 1541 1542 1543 1544 1545 1546 1547 1547 1547 1548 1548 1549 1549 1549 1549 1550 1550 1551 1551 1551 1551 1551 1552 1552 1552 1552 1552 1552 1553 1553 1553 1554 1553 1554 1553 1553 1553 1553 1553 1553 1553 1552
1539 1540 1541 1542 1543 1544 1545 1546 1546 1547 1547 1547 1548 1548 1548 1549 1549 1549 1550 1550 1550 1551 1551 1551 1551 1551 1551 1552 1552 1552 1553 1553 1553 1553 1553 1553 1553 1553 1553 1553 1552 1552 1552
1537 1539 1540 1540 1541 1543 1544 1544 1545 1546 1546 1546 1547 1547 1547 1548 1548 1548 1549 1549 1550 1550 1550 1551 1551 1551 1551 1551 1551 1552 1552 1552 1552 1552 1552 1552 1553 1552 1552 1552 1552 1552 1551
1536 1537 1538 1539 1540 1541 1542 1543 1544 1544 1545 1545 1545 1546 1546 1547 1547 1548 1548 1548 1549 1549 1550 1550 1550 1550 1550 1550 1551 1551 1551 1551 1552 1551 1551 1551 1552 1552 1551 1551 1551 1551 1551
1534 1535 1537 1537 1539 1539 1540 1541 1542 1543 1543 1544 1545 1545 1545 1545 1546 1547 1547 1547 1548 1548 1549 1549 1549 1549 1549 1549 1550 1550 1550 1550 1550 1550 1550 1550 1550 1550 1550 1550 1550 1550 1550
1533 1534 1535 1536 1537 1538 1539 1540 1541 1541 1542 1543 1543 1543 1544 1544 1545 1545 1546 1546 1547 1547 1548 1548 1548 1548 1548 1549 1549 1549 1549 1549 1549 1549 1548 1549 1549 1549 1549 1548 1548 1548 1548
1531 1533 1533 1534 1535 1536 1537 1538 1539 1540 1541 1541 1541 1542 1542 1543 1543 1544 1544 1545 1545 1546 1546 1547 1547 1547 1547 1548 1548 1547 1547 1547 1547 1547 1547 1547 1547 1547 1547 1547 1547 1547 1547
1529 1530 1531 1533 1534 1535 1536 1537 1538 1538 1539 1540 1540 1540 1541 1541 1542 1542 1543 1543 1544 1544 1545 1545 1545 1546 1546 1546 1546 1546 1546 1546 1546 1546 1546 1545 1545 1545 1545 1545 1545 1545 1545
1527 1528 1529 1530 1531 1533 1534 1535 1536 1537 1537 1538 1538 1539 1539 1539 1540 1540 1541 1541 1542 1542 1543 1543 1543 1544 1544 1544 1544 1544 1544 1543 1544 1544 1544 1543 1543 1543 1542 1543 1543 1542 1543
1525 1526 1527 1528 1530 1531 1532 1533 1534 1535 1535 1536 1536 1537 1537 1537 1538 1538 1539 1539 1539 1540 1540 1541 1541 1541 1541 1542 1542 1542 1541 1541 1541 1541 1541 1541 1541 1540 1540 1540 1540 1540 1540
1523 1524 1525 1527 1528 1529 1530 1531 1532 1532 1533 1533 1534 1535 1535 1535 1535 1536 1536 1536 1537 1537 1537 1538 1538 1539 1539 1539 1539 1539 1539 1539 1539 1538 1538 1538 1538 1538 1538 1537 1537 1537 1537
1520 1521 1523 1524 1525 1526 1527 1528 1529 1530 1530 1531 1532 1532 1533 1533 1533 1533 1533 1534 1534 1534 1534 1535 1535 1536 1536 1536 1536 1536 1536 1536 1535 1535 1535 1535 1535 1535 1535 1534 1535 1534 1534
1517 1519 1520 1522 1523 1523 1524 1525 1527 1528 1528 1529 1529 1529 1530 1530 1530 1530 1531 1531 1531 1531 1531 1532 1532 1532 1533 1533 1534 1534 1534 1534 1532 1532 1532 1532 1532 1532 1532 1531 1531 1531 1531
1514 1516 1517 1519 1520 1521 1522 1523 1524 1525 1525 1526 1526 1526 1527 1527 1527 1527 1528 1528 1528 1528 1529 1529 1529 1529 1530 1530 1531 1532 1532 1531 1530 1529 1528 1528 1528 1528 1529 1528 1528 1528 1528
1512 1514 1515 1516 1517 1518 1519 1520 1521 1521 1522 1523 1523 1523 1524 1524 1524 1524 1525 1525 1525 1525 1525 1526 1526 1526 1526 1526 1527 1528 1529 1528 1528 1526 1525 1525 1524 1524 1525 1524 1524 1524 1524
1509 1511 1512 1514 1515 1516 1517 1517 1518 1519 1519 1520 1521 1521 1521 1521 1521 1521 1521 1522 1521 1521 1522 1522 1522 1522 1523 1523 1523 1523 1524 1524 1524 1523 1521 1521 1520 1520 1520 1520 1520 1520 1520
1507 1509 1510 1511 1512 1513 1514 1514 1514 1515 1516 1516 1517 1517 1518 1517 1517 1518 1517 1518 1518 1517 1518 1518 1518 1518 1518 1519 1519 1519 1520 1520 1520 1519 1518 1517 1516 1516 1516 1516 1516 1516 1515